Location: Street
(51.1247°N, 2.7429°W)
Time: 06:22:27
(UTC+00:00)

SR - Pass Details

Date: 28 November 2020
Orbit: 575 x 880 km, 66.7° (Epoch: 25 January)

Event Time Altitude Azimuth Distance (km) Brightness Sun altitude
Rises 18:40:29 0° 201° (SSW) 2,805 ? -22.9°
Reaches altitude 10° 18:42:41 10° 197° (SSW) 1,932 ? -23.3°
Enters shadow 18:45:42 40° 169° (S) 911 ? -23.8°
Maximum altitude 18:46:53 53° 121° (ESE) 771 - -23.9°
Drops below altitude 10° 18:51:26 10° 45° (NE) 2,087 - -24.6°
Sets 18:53:53 0° 41° (NE) 3,055 - -25.0°
